Theta_e
322 322 322 322 322 323 323 324 324 324 325 325 325 325 324 324 325 325 325 324 324 326 327 326 326 326 326 326 326 324 320 308 307 306 303 305 312 321 321 321 322 322 321 316 313 308 305 305 305 308 308 307 305 303 304 305 305 305 299 295 294 295 293 296 294 295 297 295 297 298 300 298 296 300 300 300 299 300 301 301 302 300 298 300 298 300 299 297
321 322 322 321 322 323 323 323 324 324 324 324 324 325 325 324 325 325 324 325 325 326 326 326 326 326 325 326 327 323 318 307 305 305 305 311 321 320 321 320 322 321 320 316 308 306 304 302 302 304 305 303 306 302 304 302 305 300 297 297 294 297 296 299 298 298 296 296 297 298 300 298 297 298 299 294 295 297 299 301 302 300 299 298 297 299 297 296
321 321 321 321 321 322 323 323 323 324 324 324 324 325 325 325 325 326 326 326 326 326 326 326 325 325 325 324 325 322 312 305 304 301 306 319 319 320 319 320 319 318 314 310 310 308 305 304 304 303 302 301 302 301 303 303 302 303 297 294 296 299 297 298 299 298 299 298 296 297 299 297 297 298 301 295 295 298 296 296 299 300 300 297 297 297 296 296
321 321 321 321 321 321 322 323 323 324 324 324 325 325 325 324 325 325 326 325 325 326 325 325 325 325 323 322 319 321 313 309 298 302 308 319 319 319 318 318 318 318 316 312 310 310 308 307 305 304 302 301 302 301 300 302 301 302 298 295 295 298 295 298 299 299 298 298 296 296 297 296 299 299 297 296 294 295 296 302 299 299 298 298 297 296 296 295
320 321 321 320 321 322 322 323 323 324 324 324 324 325 325 325 325 325 325 324 324 326 326 325 325 325 320 320 318 312 309 299 296 305 309 316 318 320 316 316 317 316 311 309 308 309 308 306 304 304 303 299 303 302 301 302 301 300 297 298 297 298 295 298 298 297 296 297 297 296 295 296 299 298 298 297 293 292 296 302 302 301 300 298 296 296 296 295
320 320 320 320 320 320 321 322 323 324 323 324 324 325 324 324 325 325 326 324 326 326 326 324 321 319 319 316 316 313 305 290 301 303 317 315 316 319 317 316 318 314 313 309 307 306 305 305 303 302 301 300 299 297 301 301 302 294 300 298 299 298 295 298 298 296 295 295 294 294 297 297 296 296 299 298 296 297 301 304 303 302 301 301 299 297 295 294
320 320 319 319 320 320 321 322 322 323 324 324 324 324 324 324 324 324 325 326 326 325 324 322 323 322 322 319 323 306 300 298 303 306 313 315 315 316 315 316 321 318 311 305 305 303 302 302 302 300 299 300 301 298 300 298 301 297 295 299 297 297 296 298 296 295 295 295 294 296 298 295 296 293 299 296 298 300 303 301 301 301 301 300 298 296 295 294
320 319 319 319 319 320 320 321 322 323 323 323 324 325 325 324 324 324 324 326 326 325 322 324 324 322 319 320 315 301 299 297 303 307 311 314 308 308 311 309 310 309 307 305 304 302 303 300 299 300 301 296 299 298 302 298 300 298 296 298 297 298 298 299 298 296 296 296 297 297 295 295 296 296 295 294 297 298 299 299 298 298 299 298 297 296 295 293
320 319 319 318 319 319 320 321 321 322 323 323 324 324 325 323 323 323 323 324 325 325 322 321 320 319 316 313 306 299 295 302 305 307 307 305 306 307 308 307 308 307 306 306 306 304 303 300 301 300 297 299 300 300 300 297 297 298 296 298 297 296 298 297 297 296 295 296 297 293 293 295 297 296 294 296 296 298 297 297 297 297 296 296 296 295 294 293
319 318 318 319 320 320 320 320 321 321 322 323 324 324 325 323 322 323 324 324 324 321 322 322 322 318 318 308 307 296 299 305 306 307 306 305 306 307 307 306 306 306 305 304 305 305 302 301 300 302 303 300 299 300 298 299 296 300 298 298 297 297 296 297 294 294 295 295 294 292 292 293 297 293 291 295 295 297 296 295 296 295 294 294 295 295 294 291
319 318 318 319 319 320 321 321 320 321 322 323 324 324 324 322 323 324 324 324 323 322 320 319 319 312 306 305 299 294 304 305 307 306 305 306 305 304 303 304 306 305 305 304 304 305 305 303 303 303 303 297 299 300 299 302 299 298 299 297 297 297 295 295 295 294 295 293 294 294 292 294 295 293 291 293 295 296 294 294 294 293 293 293 293 293 292 290
318 318 318 319 320 320 320 320 320 321 322 323 324 324 323 321 322 324 324 322 323 322 320 319 316 310 306 302 297 296 305 305 308 306 306 307 304 303 303 304 305 305 305 303 304 305 305 304 304 302 295 302 296 299 299 299 298 298 297 294 296 297 293 293 293 293 295 292 294 294 292 292 292 290 292 293 295 294 293 293 292 292 292 292 292 291 289 288
318 318 318 319 319 319 319 319 321 322 323 324 323 322 321 322 322 322 322 319 320 319 317 316 317 311 311 299 298 304 306 307 307 306 306 308 307 304 305 305 304 305 307 304 303 305 306 307 304 299 301 301 299 293 300 299 298 298 297 294 294 295 292 293 295 294 294 292 295 294 284 289 291 291 293 294 293 293 292 293 291 291 291 291 290 289 287 288
318 317 318 318 319 319 319 320 321 322 321 321 321 320 320 321 321 321 322 321 318 321 320 318 317 311 305 297 302 304 306 308 308 305 304 307 306 305 306 305 304 304 306 305 305 307 305 307 303 301 305 299 297 304 299 299 299 293 295 295 290 289 289 295 293 293 291 294 293 295 284 288 291 291 292 293 294 292 291 291 291 290 290 289 289 287 286 286
318 318 318 320 320 319 319 320 321 320 319 319 320 320 319 318 319 321 319 318 316 318 319 316 312 309 302 299 303 306 315 308 303 303 305 304 304 303 303 305 303 302 303 303 302 302 303 302 304 301 299 302 301 300 298 295 296 295 292 288 291 288 290 293 293 293 288 292 295 292 285 287 290 290 292 293 293 292 291 290 290 289 289 288 288 286 284 284
318 318 319 319 319 318 318 319 319 320 320 317 317 319 320 319 317 318 317 317 318 314 320 323 312 306 301 296 300 310 305 301 300 304 305 305 304 301 303 302 303 302 302 300 302 302 303 303 300 299 300 300 298 295 297 295 293 293 289 286 286 288 288 291 292 294 293 291 293 291 285 288 289 290 291 292 291 292 290 289 289 289 288 287 285 284 284 283
317 318 319 319 318 318 319 318 318 320 319 321 319 316 318 319 318 318 316 314 315 318 310 306 308 312 297 302 307 301 298 302 304 304 304 306 303 303 303 302 300 300 301 301 302 302 301 298 297 300 301 294 295 295 291 287 286 287 290 286 288 285 287 286 292 293 294 291 287 292 288 288 290 289 289 290 290 290 289 289 288 288 288 286 285 284 283 283
317 318 319 318 318 318 319 319 319 319 319 317 315 322 312 313 315 317 315 318 320 316 313 313 308 305 298 303 294 297 302 301 302 301 304 305 304 303 302 300 301 301 301 300 302 300 301 298 301 294 294 293 292 290 285 281 283 284 285 285 286 288 288 287 286 291 291 291 288 289 289 288 289 288 288 288 290 290 288 288 288 287 286 285 284 283 283 282
318 318 319 318 318 318 318 319 319 318 318 317 311 310 314 316 326 311 308 308 310 305 301 299 302 296 292 296 300 301 301 302 302 303 301 303 303 304 303 303 303 299 299 298 297 299 301 299 299 292 287 288 288 289 286 286 288 287 286 285 286 284 286 287 290 292 290 287 287 287 286 287 287 286 286 287 288 288 288 288 287 286 285 284 283 282 282 282
318 318 318 318 318 318 318 318 319 317 317 319 324 324 316 310 307 302 306 304 300 301 300 302 302 301 299 298 298 301 305 302 299 302 302 303 304 302 302 303 304 302 301 296 297 297 300 291 287 286 287 289 289 289 289 289 289 288 289 287 286 286 288 290 290 291 292 287 287 288 287 287 284 284 284 285 287 287 287 286 286 285 283 282 282 281 282 282
316 317 317 317 318 317 318 318 317 315 315 326 319 313 307 304 301 294 298 300 302 302 301 300 300 297 296 298 299 298 296 298 302 300 301 305 305 301 299 302 300 297 296 297 298 300 303 290 287 289 289 289 288 290 290 290 290 289 288 287 286 288 284 288 288 291 292 287 285 289 287 286 283 283 283 284 284 283 284 284 283 282 282 281 281 281 282 284
316 316 316 317 317 318 318 319 315 313 312 324 316 312 308 308 307 313 309 296 301 302 302 300 300 299 300 299 300 298 298 297 300 299 302 303 302 299 299 299 297 294 299 297 296 296 290 286 289 290 290 291 291 291 291 289 288 289 287 286 285 286 287 289 289 291 291 288 286 288 285 284 281 282 282 282 282 282 283 284 282 281 281 281 282 282 283 283
315 316 316 317 317 318 320 318 317 314 321 314 313 309 309 312 311 311 312 302 298 301 303 301 299 298 298 301 300 300 296 293 294 297 297 300 300 298 300 297 296 296 296 297 294 292 289 288 290 291 291 290 291 290 290 289 291 288 287 285 282 285 283 281 287 289 289 287 285 286 284 283 282 281 281 282 281 281 283 282 282 282 281 281 282 283 283 282
315 315 316 316 317 318 318 319 313 318 317 316 313 309 310 313 314 311 312 300 297 299 302 299 301 298 296 295 299 298 297 295 296 294 300 298 296 298 298 294 295 294 292 293 292 290 288 290 291 291 291 290 290 290 288 286 287 289 287 285 282 283 284 283 284 287 289 289 287 286 284 283 282 280 279 280 282 281 281 282 282 282 283 284 284 284 284 282
314 315 315 316 316 316 319 317 313 312 314 315 311 312 311 312 313 314 311 298 301 298 301 304 301 298 297 300 301 299 297 297 296 297 299 297 294 299 295 296 298 291 293 292 295 292 289 290 291 290 290 291 290 288 286 285 285 286 286 285 285 285 284 285 286 285 284 283 285 284 278 280 283 280 278 279 280 279 280 280 280 281 282 283 283 282 283 283
314 315 315 316 316 315 315 311 311 313 319 312 313 311 311 312 314 313 307 296 289 295 306 294 301 296 300 297 299 299 299 295 296 298 300 298 299 295 297 294 295 290 293 293 291 290 289 290 290 290 290 290 289 287 287 286 283 284 285 288 286 285 285 285 285 284 280 278 284 286 277 275 282 278 278 279 278 277 279 279 280 281 282 283 282 282 282 282
313 315 315 315 315 313 313 310 317 315 312 309 313 311 312 313 313 317 302 292 288 293 295 300 300 298 304 297 300 299 292 293 299 299 298 300 296 301 298 293 297 296 293 292 292 287 292 291 290 291 290 289 287 285 287 285 283 284 289 288 287 285 284 285 284 283 282 286 286 284 282 276 277 279 279 279 277 277 278 279 280 281 282 281 282 281 281 281
313 314 315 316 313 313 316 314 315 313 312 312 311 311 311 311 314 316 296 284 283 300 293 297 297 304 301 299 300 295 293 297 295 296 300 300 299 299 297 293 291 291 292 291 286 288 290 289 288 289 289 287 284 286 288 287 283 285 288 288 286 286 286 286 284 282 283 281 281 282 284 277 277 279 279 279 277 277 278 279 280 280 281 281 281 281 281 281
312 314 314 316 314 310 323 318 316 312 309 310 309 311 313 315 313 301 293 283 292 294 304 297 304 299 299 301 297 298 296 297 292 296 302 301 300 296 294 294 294 292 294 294 288 287 291 289 289 289 288 284 287 288 288 287 284 288 289 289 288 287 286 286 283 282 282 278 277 280 282 275 276 281 279 280 279 278 277 279 280 281 280 280 280 280 281 281
312 313 314 312 316 322 317 316 311 310 308 307 309 311 311 312 304 292 285 280 296 288 296 298 297 292 298 297 296 296 293 294 296 298 300 296 298 299 294 294 296 293 291 293 292 291 289 292 292 290 286 287 287 289 288 287 288 290 289 288 287 288 286 285 283 282 281 277 279 280 281 279 272 278 280 280 278 276 279 279 280 281 280 281 280 280 280 280
311 311 313 314 319 315 313 308 310 309 306 307 311 312 314 304 293 288 281 287 295 295 298 296 291 297 293 293 291 295 296 294 294 296 295 298 295 297 297 293 298 292 291 292 289 289 290 291 291 290 292 289 290 288 291 289 289 288 286 285 285 285 284 281 282 282 276 275 280 282 281 281 271 277 279 280 278 277 278 277 278 279 279 280 280 280 280 280
310 309 311 312 310 315 315 310 310 309 311 308 313 313 302 291 291 286 284 296 289 291 291 290 294 290 292 293 291 290 288 294 294 293 291 292 290 288 288 286 285 287 288 286 287 291 288 287 287 290 290 288 287 287 289 287 289 287 285 284 280 278 280 276 280 275 276 274 279 282 281 277 277 280 280 278 279 279 280 280 279 279 279 279 280 280 280 279
311 308 309 310 312 312 309 309 308 309 309 311 312 306 297 289 282 287 286 289 286 292 291 291 292 290 289 291 289 290 291 288 293 293 293 293 292 288 290 288 289 286 283 288 286 287 287 287 289 288 288 290 288 283 283 284 286 284 282 280 277 273 272 270 274 277 276 279 282 280 282 275 280 281 280 279 280 281 280 281 281 280 279 279 279 279 278 278
310 312 310 305 309 308 309 307 308 307 311 311 305 300 292 286 283 286 286 289 289 292 291 290 291 292 291 289 288 288 288 289 291 291 294 290 291 287 289 290 289 287 287 287 283 283 283 283 285 287 285 289 287 284 284 283 284 283 286 282 279 277 272 269 273 270 271 273 277 281 277 275 273 277 281 281 281 281 282 282 282 281 280 280 280 279 278 277
305 312 311 311 313 309 310 307 308 308 311 308 301 293 286 285 287 287 287 288 290 291 291 290 290 290 290 289 289 289 287 287 289 290 289 289 286 286 285 285 288 288 287 285 284 283 284 283 286 288 288 288 285 287 287 285 283 285 285 286 280 276 280 274 276 274 273 273 273 277 276 279 278 281 281 282 281 281 281 281 282 279 279 280 279 277 276 277
311 311 316 307 308 309 310 309 306 308 310 303 296 290 289 287 287 290 289 291 290 289 290 291 292 290 289 288 287 286 290 287 289 288 286 287 286 286 287 287 285 287 283 283 283 282 284 284 286 287 287 286 286 287 286 287 278 283 285 278 279 283 280 275 277 279 278 276 273 280 278 281 283 279 279 280 280 280 281 281 279 278 278 279 277 276 276 276
314 311 305 307 308 307 307 309 308 309 308 302 293 289 288 288 288 289 290 290 289 290 290 287 287 286 287 287 288 285 286 288 286 286 286 286 286 286 286 287 288 287 286 284 284 284 280 282 289 286 284 285 287 288 288 288 286 285 280 280 285 283 281 277 271 274 274 270 273 277 273 274 275 272 278 279 279 280 281 279 277 278 278 277 276 276 276 276
312 308 305 307 305 306 308 308 309 310 304 299 289 288 289 288 289 291 290 289 289 288 288 289 286 287 286 285 287 284 286 286 288 288 287 287 284 287 286 286 287 286 286 287 284 284 284 281 286 286 286 286 287 287 285 287 290 284 281 286 279 275 274 280 276 269 267 268 270 274 275 275 276 275 280 278 278 277 277 276 276 277 277 276 276 276 276 276
310 308 303 306 307 306 308 306 311 306 301 292 289 288 289 289 289 290 291 290 290 289 288 285 286 285 285 286 285 283 282 286 285 287 285 285 284 287 286 286 286 287 287 288 285 286 287 280 284 285 285 285 285 284 281 282 285 287 287 283 284 281 278 274 275 275 275 269 268 270 273 271 279 278 278 278 278 277 277 276 277 277 277 276 276 275 275 275
309 302 301 307 308 309 307 308 309 302 300 291 290 288 291 290 291 290 290 289 288 289 288 286 286 286 285 284 283 286 284 284 286 286 287 286 285 287 286 287 285 287 287 287 286 288 284 286 279 286 288 286 282 285 282 282 281 282 282 280 280 279 282 278 277 274 272 269 269 268 267 273 280 281 280 279 279 276 277 277 277 277 277 277 276 275 275 275
305 303 303 307 307 309 309 308 300 293 291 288 291 289 290 289 290 290 291 291 291 291 286 288 288 287 287 285 285 287 285 286 286 286 286 286 285 284 286 286 286 286 286 286 286 286 283 284 280 283 284 285 283 284 284 284 284 282 281 279 278 276 274 272 272 278 274 271 268 267 266 273 280 283 281 281 282 281 280 278 278 278 277 276 276 276 275 274
302 297 302 306 306 309 306 297 290 292 291 290 288 290 289 292 292 290 290 291 289 289 290 289 288 289 288 287 288 286 286 286 287 286 286 285 286 286 285 285 286 285 284 284 285 286 285 284 282 280 283 284 282 283 284 285 284 282 282 280 280 280 278 275 269 273 275 275 275 272 268 271 282 283 282 283 283 282 281 280 278 277 277 276 276 276 276 275
301 300 305 306 307 310 303 293 293 291 289 289 291 290 291 290 290 290 289 290 289 291 289 290 290 289 288 289 288 287 288 286 287 285 287 287 285 284 286 285 285 285 285 285 285 285 285 282 280 282 286 281 283 283 283 283 283 281 280 281 280 278 277 275 275 275 271 272 271 272 268 273 282 284 284 284 283 283 282 280 278 277 277 276 275 275 274 274
301 300 302 309 309 306 301 292 290 288 288 289 290 289 290 291 290 288 288 289 289 287 290 289 289 289 288 289 288 286 288 284 287 286 286 285 284 283 284 285 283 286 285 285 283 286 281 284 281 279 282 282 279 279 280 280 280 281 281 279 280 278 277 276 275 273 270 272 272 269 264 271 281 285 284 284 283 281 280 279 278 276 276 276 275 275 274 273
300 301 300 302 305 304 299 301 294 289 287 288 287 287 288 288 290 291 289 290 289 288 287 288 289 290 289 289 289 288 288 286 285 283 282 284 284 281 282 282 282 285 287 286 283 285 282 283 281 278 275 274 274 276 278 279 281 283 280 277 277 276 275 274 273 274 270 274 274 271 271 278 282 283 282 282 281 280 279 279 279 278 276 275 275 274 273 272
303 292 300 300 301 299 295 294 298 293 288 287 286 287 288 287 289 291 291 290 288 289 289 290 289 289 288 287 287 287 287 286 284 284 283 284 283 284 283 280 282 286 284 282 281 283 282 283 282 282 280 278 280 282 285 285 282 278 281 279 275 277 277 276 275 273 271 274 272 274 274 275 277 279 279 280 280 278 277 277 277 276 275 275 275 274 272 271
301 295 294 294 298 297 293 296 293 294 289 292 288 287 286 289 289 289 291 287 290 290 289 290 289 287 287 287 287 287 288 286 286 282 283 284 283 282 283 285 283 283 281 282 281 280 282 281 282 282 281 281 283 282 283 283 279 281 280 280 278 275 274 273 273 273 278 273 270 276 278 274 275 278 279 279 279 278 278 278 277 276 275 274 274 273 272 271
298 296 296 294 296 293 293 291 294 293 292 293 287 289 288 288 288 286 288 288 290 289 289 288 288 290 289 288 288 285 286 286 285 283 281 280 283 282 282 283 285 284 283 284 282 281 281 280 279 276 279 281 281 281 282 281 281 280 280 280 279 277 274 271 272 276 277 272 271 276 277 274 276 278 279 279 278 277 278 277 277 277 275 274 273 271 270 269
298 295 294 292 296 288 289 291 295 295 293 292 288 290 288 289 287 291 289 288 288 288 290 286 288 289 289 289 288 286 287 284 284 283 281 283 283 283 283 282 285 285 284 282 282 280 281 282 280 278 277 279 280 281 282 281 280 280 280 280 280 279 276 275 275 276 276 274 276 276 275 275 277 279 280 280 280 279 279 279 278 276 274 273 272 270 269 269
297 297 292 294 293 288 287 289 293 295 290 289 288 289 290 290 290 288 289 290 286 288 289 287 289 289 290 289 288 286 287 288 284 284 284 283 281 282 284 285 284 283 285 283 282 281 280 281 278 279 276 279 283 283 282 281 280 278 279 279 279 279 278 278 277 276 277 275 276 276 275 274 279 282 281 281 280 280 279 277 276 275 274 272 271 269 269 268
300 297 301 296 293 289 288 288 292 293 290 290 291 289 289 291 291 292 290 291 289 289 288 289 291 289 289 288 289 288 291 289 287 286 286 285 284 287 284 284 286 282 282 280 282 281 279 281 279 278 277 279 282 280 281 281 280 278 276 277 278 278 275 276 275 277 275 274 275 275 273 274 280 283 281 280 280 278 277 276 275 274 273 272 269 268 268 268
299 297 298 303 292 287 290 287 288 290 289 293 294 291 291 292 293 293 288 291 289 291 292 291 292 291 289 288 287 289 289 290 289 288 288 288 287 287 286 286 286 285 283 283 280 281 281 281 279 280 276 279 282 280 281 280 277 274 276 278 279 279 279 279 280 280 279 278 274 272 274 280 281 282 279 279 278 278 277 275 274 273 273 272 269 268 268 268
Wind_Speed
9 9 9 8 7 5 5 7 9 10 9 8 8 7 7 6 6 6 4 4 5 6 5 4 5 5 5 5 5 9 10 3 14 14 17 9 4 11 13 13 13 13 9 6 7 7 5 4 5 4 5 5 3 2 2 1 3 5 2 4 3 5 4 8 9 8 10 11 11 14 8 11 11 2 4 4 9 10 9 8 5 5 5 2 3 2 10 12
9 10 10 9 8 8 9 9 10 10 9 8 8 7 7 6 7 6 6 5 6 6 5 5 5 6 6 6 7 7 7 4 13 16 13 3 9 13 12 12 11 10 8 7 5 2 2 1 1 4 4 3 2 1 2 3 4 5 3 3 5 5 6 6 8 10 10 11 14 13 7 5 9 8 5 8 12 11 10 11 9 8 8 5 3 6 10 11
8 9 9 9 9 9 9 10 10 8 7 7 8 8 8 8 7 7 7 7 7 5 4 5 5 4 6 6 7 5 5 0 12 17 11 16 13 14 12 11 11 9 8 7 6 6 5 5 2 4 0 3 1 2 3 3 5 3 5 4 5 7 9 8 6 10 10 12 13 12 7 8 9 7 5 8 13 12 14 13 5 6 10 8 5 10 10 10
9 8 7 7 7 8 9 10 8 6 7 8 8 8 8 7 7 7 7 6 5 5 4 4 4 4 4 4 2 6 5 8 11 9 11 14 15 13 12 11 11 10 7 5 5 4 3 2 2 5 2 4 2 2 3 5 4 4 4 5 8 9 9 7 7 9 11 10 11 10 9 9 5 6 7 10 13 12 13 13 12 15 18 5 7 10 10 9
9 9 9 9 10 10 9 8 7 8 8 8 8 8 7 7 7 7 7 6 6 6 5 3 3 2 2 2 2 6 5 4 6 9 12 16 15 15 12 12 10 8 6 4 6 4 5 4 3 2 3 3 1 3 4 4 4 5 3 6 7 7 8 8 8 7 9 8 8 9 9 7 6 8 7 8 10 12 12 9 10 11 15 4 8 9 9 9
11 10 10 9 9 8 7 8 9 8 8 8 8 8 8 6 6 6 6 7 6 6 5 3 1 1 0 1 3 5 5 2 5 10 14 16 15 15 11 10 10 6 5 7 5 4 5 3 5 2 3 4 6 6 5 4 3 5 5 5 5 6 7 8 8 6 8 9 10 10 6 8 10 10 10 7 11 13 14 10 10 11 11 5 3 9 8 9
9 9 8 7 7 8 8 9 8 7 8 8 7 7 7 6 5 5 5 5 6 6 3 2 1 5 3 3 7 4 10 7 7 13 14 14 15 12 11 9 10 6 7 6 7 6 5 5 4 6 4 2 4 5 4 4 1 2 4 7 6 6 8 7 7 5 6 8 10 8 9 10 10 11 6 7 13 11 13 11 11 10 8 3 3 7 7 8
7 7 7 7 8 9 9 8 7 8 8 7 7 7 6 6 5 5 4 4 5 4 2 3 4 5 4 3 4 8 9 8 12 13 13 13 14 12 12 7 8 8 6 7 9 8 6 8 7 7 1 6 4 5 4 7 3 3 4 7 7 5 4 5 5 5 5 6 6 8 10 11 9 7 8 12 10 14 12 11 9 7 5 3 4 6 8 9
9 8 7 8 8 8 8 8 7 7 7 7 6 6 5 5 4 4 5 5 5 4 2 4 3 3 2 5 6 5 8 9 9 14 14 14 14 11 9 7 11 7 3 8 7 8 5 8 4 7 5 3 3 2 4 7 6 6 5 7 8 7 6 6 4 2 5 4 5 10 13 14 6 6 7 8 12 10 8 9 8 5 6 5 5 7 7 9
8 7 7 7 7 7 7 7 7 7 7 6 5 5 5 4 4 4 4 5 5 4 2 4 8 3 4 6 3 6 6 9 8 11 12 12 11 9 8 9 10 8 6 9 9 9 9 6 6 4 2 4 3 2 3 2 4 1 5 6 8 6 5 3 6 6 8 4 8 11 16 13 2 4 2 12 11 9 9 8 8 7 8 8 7 7 9 11
6 7 7 7 7 6 7 7 8 7 6 6 5 5 5 4 3 3 5 5 5 4 4 7 8 5 6 8 7 8 3 7 8 9 11 10 7 11 10 9 9 7 6 7 8 7 5 5 5 1 2 5 6 1 2 3 4 6 2 6 9 1 3 3 5 9 10 5 10 10 17 11 2 2 7 10 9 12 12 10 9 9 8 8 9 10 10 10
8 7 7 7 7 7 8 8 7 7 6 6 6 5 4 3 3 2 3 5 6 5 6 6 9 5 6 12 12 6 5 5 7 9 10 8 4 5 5 5 7 8 7 6 7 5 4 4 5 9 4 6 3 0 3 0 4 5 3 4 4 7 4 4 9 9 12 4 11 14 17 3 4 8 10 11 11 15 14 7 10 10 9 9 10 10 10 9
8 8 8 8 8 8 8 8 7 7 6 6 5 4 4 4 3 2 2 2 3 4 5 7 7 1 5 8 6 1 3 6 5 10 10 7 0 1 1 4 6 7 8 6 5 2 2 3 2 8 2 5 3 4 3 3 4 4 4 3 2 5 4 4 7 9 10 4 9 13 5 6 10 12 12 12 13 15 11 9 9 8 8 8 9 10 10 9
8 8 7 8 9 8 8 7 7 6 6 5 4 5 5 6 4 2 3 2 2 4 6 9 6 2 7 6 4 1 3 5 5 11 12 10 5 4 3 5 5 5 5 7 5 1 1 2 5 6 1 8 4 1 3 3 3 8 4 3 5 5 4 8 6 7 11 3 7 9 6 7 10 13 12 14 14 13 11 10 9 8 8 9 9 10 10 11
8 8 8 8 8 8 7 6 6 7 8 6 4 5 6 6 4 3 1 1 3 5 7 7 1 4 3 4 2 3 4 7 10 13 10 12 11 2 6 1 3 4 5 4 3 0 1 4 3 6 6 1 4 4 2 2 1 8 2 3 5 5 5 11 4 7 10 9 9 10 3 8 7 13 16 15 15 12 10 10 9 8 8 9 9 10 10 11
8 7 8 8 7 7 7 7 8 7 7 8 7 4 4 4 5 4 2 2 4 4 4 1 3 5 5 4 5 5 2 13 13 11 7 8 8 6 8 2 0 1 3 2 1 1 1 6 6 2 7 3 11 9 0 5 4 7 6 5 4 5 7 7 6 5 8 12 8 9 8 9 6 14 15 16 14 12 10 10 9 9 9 9 9 9 9 9
8 8 9 8 8 7 7 7 7 7 7 6 7 8 4 4 2 3 3 1 2 2 2 3 5 1 4 1 4 4 10 9 8 9 9 7 4 6 8 3 1 2 2 2 4 5 1 2 1 2 7 9 9 9 6 6 7 5 7 7 9 7 8 4 6 5 10 12 13 9 6 8 9 14 15 15 13 11 11 10 10 9 8 9 8 8 8 8
8 8 8 8 7 7 6 6 6 6 5 3 1 5 4 2 5 4 3 1 0 0 1 2 3 1 7 7 6 10 10 8 9 9 10 6 2 7 6 5 3 3 4 4 5 5 4 1 3 7 5 11 13 13 8 6 6 9 8 7 7 8 3 9 9 8 12 11 11 9 7 9 7 12 14 13 12 12 12 10 9 9 8 8 8 8 9 7
8 8 7 7 6 7 6 6 6 5 3 0 3 2 7 6 4 12 10 6 1 1 1 7 7 2 4 8 7 8 9 6 8 9 15 12 5 5 5 2 4 4 3 2 6 5 4 3 3 7 12 12 11 8 5 4 7 9 9 7 9 10 9 8 12 5 8 14 12 9 7 10 8 11 12 12 11 10 10 10 9 9 9 8 8 8 7 7
8 7 6 6 6 7 7 6 5 4 3 2 2 2 3 3 2 4 8 13 10 7 6 4 2 1 1 7 10 13 10 1 5 14 14 11 9 7 3 6 2 7 4 1 2 6 4 9 9 8 5 7 6 5 7 7 7 8 7 7 7 10 10 11 15 3 5 8 7 9 6 6 9 10 11 9 9 11 11 11 9 9 9 9 8 8 6 5
9 7 6 5 6 7 6 6 4 3 3 4 1 3 3 2 1 5 3 7 4 5 6 5 5 7 5 5 8 12 7 1 2 15 16 15 4 5 9 7 2 5 4 2 2 0 1 10 7 7 6 5 4 4 6 8 6 7 7 6 8 8 11 17 13 2 2 6 9 7 10 7 9 10 10 8 10 13 11 10 11 11 10 8 7 5 5 4
9 7 6 5 6 6 5 4 3 1 5 3 1 2 3 3 1 3 1 5 4 3 1 2 5 4 2 2 3 4 5 4 7 18 15 18 11 4 6 4 6 7 2 3 3 2 11 9 5 6 5 5 4 4 5 8 8 6 5 7 6 7 11 14 2 3 9 9 8 10 11 5 10 11 10 11 10 9 10 10 9 9 8 6 6 6 5 8
8 7 7 7 7 7 5 4 2 4 1 1 3 6 4 2 2 1 3 8 5 2 3 7 10 8 9 1 5 7 4 12 8 15 17 16 7 7 7 5 8 7 10 10 5 4 6 6 6 5 5 7 3 1 12 12 4 4 6 8 8 11 11 10 8 12 13 8 7 9 15 7 10 11 12 9 8 10 11 10 9 8 7 6 4 5 8 10
9 8 8 8 8 6 4 4 7 2 6 6 7 5 2 3 3 3 3 2 3 3 4 2 4 7 5 8 6 8 10 6 8 14 13 10 8 4 3 6 6 7 9 11 13 10 7 4 4 5 5 5 8 6 12 10 7 6 4 7 9 13 13 11 15 16 17 3 3 8 10 5 7 8 8 7 8 10 9 9 8 6 5 3 5 8 10 11
9 9 9 9 10 4 5 4 2 4 2 5 5 2 2 3 3 3 3 2 2 4 2 2 2 5 5 4 3 4 3 3 9 5 8 9 11 4 4 2 3 6 4 3 3 9 7 4 3 5 5 3 9 7 10 10 6 8 5 7 14 16 15 16 15 14 9 1 5 11 8 3 6 7 6 6 6 8 7 5 5 4 3 5 8 10 11 12
10 9 9 10 8 3 1 1 3 1 1 4 3 2 1 2 2 2 3 2 1 5 4 5 4 4 3 7 7 4 4 4 2 6 5 6 3 2 4 4 5 4 3 2 6 5 4 1 1 4 4 9 9 7 6 9 5 5 4 13 16 15 14 14 13 9 7 7 5 6 6 10 2 7 7 6 7 7 5 4 3 2 4 7 8 10 9 10
11 9 8 9 7 2 2 1 2 1 2 3 3 1 2 2 1 2 3 1 1 3 4 2 3 4 2 8 8 4 1 4 6 3 9 7 6 2 4 3 3 4 2 2 3 4 2 4 4 4 4 9 9 9 8 6 5 3 10 17 18 15 13 11 9 7 7 8 5 4 1 10 12 5 7 8 9 6 4 3 2 3 6 8 9 9 10 12
12 9 7 7 8 2 3 4 3 2 3 2 2 0 2 1 2 3 2 2 1 1 3 4 3 2 3 4 12 8 3 8 2 9 9 6 5 3 2 5 7 4 2 2 2 2 4 2 5 5 6 7 10 9 7 3 3 7 13 17 18 15 14 11 5 6 7 6 1 1 9 10 5 4 8 11 5 4 3 2 2 4 6 9 9 12 14 17
12 9 7 4 5 5 4 1 1 2 2 2 2 2 1 0 3 3 2 1 1 1 3 2 1 0 5 4 7 5 2 8 5 6 10 3 7 2 2 2 2 4 2 4 2 2 3 2 2 3 5 7 9 9 2 4 5 6 16 18 16 15 12 10 5 5 3 2 4 5 12 10 9 5 8 11 7 1 3 3 1 4 7 7 13 14 14 15
12 11 6 4 4 3 1 3 5 2 2 2 2 2 1 3 3 2 2 3 2 1 3 4 2 7 8 4 3 8 8 5 1 8 4 5 7 3 5 3 2 2 1 8 9 4 3 3 2 1 5 5 9 8 2 6 7 15 18 16 14 9 8 6 6 3 4 4 7 8 10 9 12 7 2 3 4 1 4 4 4 6 7 11 14 14 15 16
13 14 11 5 1 1 3 2 3 2 1 2 3 3 3 3 2 1 2 1 3 2 2 3 3 3 8 7 2 8 1 5 7 9 6 6 8 10 4 4 4 4 4 5 6 6 5 4 2 3 0 6 7 9 5 5 10 12 11 13 13 3 5 3 3 6 5 7 5 9 12 15 12 7 5 3 3 3 2 3 5 10 11 14 15 16 19 20
9 13 13 9 0 2 2 2 2 1 1 2 3 2 3 2 2 2 0 0 2 3 2 3 1 2 2 1 5 7 6 3 5 7 7 6 9 10 13 7 7 2 2 8 4 4 4 3 3 5 2 5 10 10 5 5 6 9 11 10 9 6 4 2 7 9 6 8 11 14 17 10 8 5 4 6 6 4 3 2 7 9 13 15 17 16 14 16
3 2 10 9 1 5 3 2 1 1 2 3 2 2 3 2 2 2 2 1 1 3 2 1 3 3 2 4 5 5 1 5 6 5 3 4 4 8 10 12 9 4 2 4 6 5 3 3 2 4 2 5 7 7 9 1 7 11 13 12 10 11 9 8 9 6 10 8 6 15 14 10 11 5 4 4 4 5 5 3 4 10 12 16 17 18 18 14
8 3 5 2 6 4 2 1 0 2 2 2 3 3 1 3 0 3 0 2 2 1 1 1 2 3 3 3 3 5 1 2 5 6 6 2 6 5 5 9 11 6 2 3 5 6 3 1 4 5 1 6 5 5 4 5 6 7 6 11 6 4 4 8 7 10 11 16 16 14 8 4 12 3 3 3 4 4 4 4 7 8 9 13 17 20 18 16
3 4 4 2 2 3 3 1 1 2 3 3 3 1 2 0 1 1 1 2 2 1 1 2 2 3 2 3 1 1 2 0 3 3 8 5 4 5 5 6 10 9 3 2 3 2 1 4 4 3 4 4 4 1 2 5 5 3 3 4 5 4 3 5 8 10 10 14 15 7 4 7 6 4 5 4 5 4 3 8 8 7 8 17 20 19 17 18
2 2 1 4 3 3 2 1 1 2 3 3 3 3 2 1 1 1 1 2 2 2 2 2 3 3 2 2 2 1 2 1 2 1 3 6 4 4 2 3 6 9 5 3 2 3 6 1 4 6 3 5 3 0 2 5 5 8 4 7 7 4 5 8 10 11 15 11 10 5 9 9 2 7 8 6 4 7 8 10 9 10 13 19 18 16 17 17
1 1 1 2 3 5 3 1 1 2 3 3 2 1 2 2 3 2 3 2 1 2 3 2 1 2 0 0 1 1 1 2 1 2 2 2 3 5 3 3 1 4 4 4 1 1 2 7 4 5 3 2 2 4 7 5 2 3 3 6 9 4 3 3 9 9 6 8 9 8 13 13 11 9 6 3 10 15 15 9 7 16 18 19 20 19 18 15
0 1 2 2 5 5 2 1 2 2 2 2 1 3 0 0 1 2 1 1 2 2 2 3 1 2 0 1 0 2 3 2 4 3 2 1 2 2 2 3 3 4 3 1 2 1 2 4 4 1 4 6 3 1 4 6 7 6 4 2 6 3 2 3 6 8 12 11 13 7 8 12 8 8 10 16 19 14 11 7 11 18 19 20 22 22 20 17
1 2 1 3 3 3 2 2 2 2 2 1 2 2 1 3 1 1 2 3 2 3 1 2 1 0 1 1 2 1 3 2 2 2 2 3 2 2 2 3 2 2 2 2 2 3 3 2 0 3 3 6 4 5 3 4 7 7 8 4 3 3 2 7 3 6 4 12 11 14 16 11 2 5 10 14 15 9 13 9 16 19 20 22 20 18 15 16
2 2 1 1 4 2 1 1 3 1 2 0 1 1 1 3 2 1 0 2 1 2 1 1 0 0 1 1 1 2 1 1 2 1 2 3 1 2 1 1 4 2 2 2 3 2 1 0 4 2 6 6 2 1 4 4 3 1 2 4 1 1 4 4 3 3 3 6 9 13 16 8 4 6 7 11 11 0 4 13 18 19 20 20 18 16 15 15
0 3 1 2 5 2 3 1 5 3 2 2 5 4 0 2 4 2 1 1 2 1 1 1 0 0 1 0 1 2 0 1 1 0 2 2 2 1 3 2 2 2 1 4 5 2 2 3 4 10 7 3 4 5 3 3 3 2 2 2 3 3 4 6 5 4 1 3 7 11 17 15 11 2 4 8 18 18 18 17 21 22 21 19 16 16 15 14
2 2 1 3 3 1 3 2 3 2 0 1 2 1 3 2 3 2 1 3 3 0 1 1 2 1 1 0 3 2 1 1 1 1 1 2 2 3 2 2 2 2 2 2 3 4 2 3 5 6 7 4 5 4 4 4 4 4 2 1 0 1 1 3 8 5 5 5 7 10 13 16 3 2 4 15 19 20 20 20 21 20 20 18 16 16 14 13
2 2 3 3 2 1 1 4 1 2 3 2 1 4 2 2 1 1 1 3 2 1 1 1 2 1 2 2 1 1 2 1 1 0 2 1 3 4 3 2 2 2 4 2 3 2 0 2 5 9 4 7 7 5 6 5 1 2 3 4 4 2 0 2 4 5 7 8 7 9 9 10 1 2 11 18 22 22 19 20 22 21 18 16 15 15 14 13
1 1 1 2 1 2 2 1 2 2 3 2 2 4 2 1 1 4 2 2 2 1 1 2 2 3 2 1 1 1 1 1 1 2 2 0 2 2 1 1 1 0 3 3 2 3 2 2 3 6 4 2 5 2 3 1 2 5 3 4 3 4 4 1 3 1 3 6 8 8 12 11 8 12 16 20 21 22 19 17 17 19 17 14 14 13 12 14
1 1 0 2 3 0 3 3 3 5 3 4 4 4 4 1 3 3 2 2 1 1 1 2 3 3 2 1 1 1 1 2 0 2 2 0 1 2 1 3 3 3 3 3 3 3 3 4 4 6 9 11 10 9 8 5 4 4 6 5 6 7 7 2 3 3 8 4 8 11 16 19 17 18 20 19 21 19 14 17 18 16 15 14 14 13 12 13
1 1 1 2 3 4 4 2 2 6 7 3 2 2 1 3 2 2 2 2 2 1 3 4 1 1 3 2 2 4 3 2 2 0 1 2 2 3 2 3 4 1 2 3 4 3 2 2 5 3 3 6 8 9 10 9 10 7 5 7 8 5 6 5 4 5 8 10 12 16 18 24 27 24 22 21 20 16 20 19 20 18 16 14 13 11 11 13
1 1 0 0 1 5 4 3 3 4 4 5 1 5 4 3 4 3 1 1 3 1 1 1 2 4 2 2 3 3 3 2 3 1 2 1 1 2 4 4 3 3 2 1 1 1 2 3 3 5 6 9 12 15 14 11 13 14 11 6 8 8 9 7 7 9 8 10 15 8 12 17 26 25 23 24 19 16 19 20 20 17 14 14 13 11 13 15
2 1 1 2 2 1 1 2 2 4 5 1 2 2 6 7 4 2 1 1 1 2 2 3 3 5 3 3 2 2 4 4 3 2 2 1 1 3 2 4 4 7 7 3 2 2 2 3 2 1 8 11 15 16 15 12 12 11 12 12 8 9 11 11 12 16 11 8 15 22 22 22 24 23 23 21 14 19 21 21 18 17 15 14 12 11 13 16
3 3 2 1 1 2 3 2 1 5 5 2 2 3 4 7 6 3 1 4 2 3 4 2 4 8 6 3 3 1 3 1 3 2 3 3 3 2 2 2 4 6 5 2 1 1 2 4 2 0 11 15 15 14 12 12 11 11 11 14 13 11 13 14 15 14 14 16 20 22 24 26 24 22 20 15 16 18 20 17 15 16 16 14 11 11 15 17
1 3 1 1 5 3 1 1 2 2 1 2 1 5 5 7 6 3 2 4 3 3 2 4 3 5 5 4 5 3 1 3 0 2 3 4 1 3 2 2 2 3 4 2 1 2 2 1 5 3 5 11 10 4 4 8 9 12 12 13 13 12 12 14 13 14 15 19 21 22 23 23 18 14 13 16 15 15 17 17 17 15 15 13 10 12 15 17
2 3 1 5 2 1 0 1 2 1 2 2 3 3 2 6 5 7 3 2 2 3 7 4 4 5 2 3 5 7 3 2 1 0 4 3 2 3 2 0 4 4 4 2 2 1 1 1 2 1 6 8 3 4 5 9 9 10 14 13 12 12 10 10 10 10 11 14 16 16 16 15 12 12 15 14 16 18 19 18 16 13 14 11 9 12 16 17
0 1 1 2 0 0 1 1 0 1 2 1 1 4 2 6 5 7 2 3 2 2 2 1 4 2 3 3 7 2 4 4 4 4 3 2 1 1 2 2 1 2 5 4 1 2 1 3 4 3 7 6 2 3 11 12 5 6 8 10 14 14 13 10 11 12 14 14 13 13 14 12 16 16 19 18 17 19 18 16 17 17 14 8 8 12 15 16
Wind_Direction
352 3 357 351 337 349 5 13 19 23 11 351 352 5 5 4 2 13 10 360 347 348 346 328 309 304 300 296 287 289 309 25 49 43 47 46 313 311 315 309 308 308 303 288 255 239 221 202 212 181 234 233 92 244 83 183 336 267 271 343 300 16 349 15 331 333 328 311 333 337 28 334 320 356 104 266 239 232 272 246 238 226 243 271 59 92 126 133
352 353 349 346 338 353 10 16 18 16 356 340 356 351 358 358 359 356 1 358 358 352 343 330 307 306 310 296 294 302 306 1 52 49 58 309 355 347 335 320 319 309 290 272 313 327 316 128 241 231 240 222 102 340 225 118 290 321 331 265 337 14 23 339 329 322 329 329 329 326 13 353 330 341 6 319 313 312 281 268 221 244 228 166 155 153 146 152
355 350 345 340 340 357 10 15 15 1 341 349 353 350 2 357 352 353 356 357 353 351 344 311 302 294 289 293 292 309 282 198 40 34 19 17 356 347 336 325 319 311 307 332 334 324 360 14 335 268 109 271 98 57 267 60 302 81 323 334 29 32 337 329 354 337 339 333 325 329 17 331 312 320 348 296 315 305 300 308 317 232 279 185 171 162 161 166
346 341 338 330 347 3 13 14 4 349 354 360 351 354 3 355 355 355 352 349 340 354 346 317 287 287 288 278 265 285 269 261 38 357 12 3 352 337 337 318 319 306 291 291 321 302 302 285 284 294 347 269 83 258 294 54 298 58 277 350 0 7 333 22 352 355 336 339 325 326 327 307 15 337 310 306 306 310 324 17 6 345 337 135 169 164 164 169
337 340 341 349 1 3 4 5 357 1 2 0 358 355 1 359 357 350 342 347 352 354 351 325 298 283 324 327 272 254 272 238 39 347 10 354 344 336 332 316 306 311 318 311 283 261 276 295 318 324 283 338 75 267 64 58 31 287 292 12 357 351 327 14 359 27 350 325 312 324 324 349 327 286 288 299 305 315 344 5 10 353 346 151 161 166 161 165
341 344 336 353 3 354 1 8 5 1 5 5 2 359 1 1 354 348 344 348 347 340 339 342 28 40 252 281 268 226 244 73 335 357 360 345 338 329 325 312 296 284 288 284 290 299 291 255 295 272 320 328 30 348 61 32 348 322 91 35 30 11 324 355 344 24 342 333 328 331 355 312 300 295 307 302 291 307 325 28 21 9 354 340 134 149 162 157
335 329 335 346 358 353 4 10 0 1 4 4 359 357 5 4 356 345 334 329 344 336 332 291 283 288 277 267 234 106 71 94 358 348 356 336 327 319 314 289 265 269 283 336 359 337 4 322 300 19 302 286 77 351 44 326 2 290 341 8 28 345 319 341 346 7 337 323 321 330 301 288 302 303 32 309 289 325 35 31 25 14 359 52 135 146 153 143
334 333 337 351 2 359 9 354 352 2 360 356 352 348 354 3 344 328 341 343 338 349 303 243 239 269 328 276 230 73 50 13 350 346 337 341 329 330 312 253 327 327 16 10 353 10 330 23 7 335 2 0 17 333 24 306 155 347 351 11 334 312 334 357 350 348 335 317 326 313 301 311 309 324 332 297 5 34 23 27 23 27 38 66 116 139 134 133
338 337 351 356 359 359 2 349 356 2 353 346 351 347 348 349 341 330 11 359 352 344 327 294 276 285 243 283 273 43 30 353 341 338 344 341 335 322 333 4 352 344 353 16 3 359 344 37 359 17 33 38 18 328 11 326 124 12 341 318 318 315 351 23 338 20 346 342 350 325 329 321 33 358 294 39 46 30 34 27 30 31 62 76 106 122 128 118
329 340 351 345 350 349 342 349 355 359 349 338 343 338 339 339 332 347 1 353 5 5 338 299 280 251 263 247 251 72 34 324 347 345 348 343 339 354 18 9 359 348 18 30 31 23 39 35 14 350 316 126 333 54 310 299 24 315 298 303 298 311 8 58 9 18 340 71 348 335 313 324 75 3 86 49 40 16 10 26 33 42 57 70 91 102 102 103
331 349 353 354 347 339 350 350 355 349 338 330 339 341 332 335 349 0 355 358 7 25 357 325 316 278 46 39 69 68 7 311 355 351 345 348 0 19 14 0 349 6 357 61 46 27 25 40 350 355 243 19 302 128 314 75 290 283 305 272 252 321 88 45 15 24 359 74 349 332 306 315 7 149 31 27 17 13 4 23 37 47 64 76 90 95 97 97
345 355 353 344 341 350 357 350 341 335 338 338 336 332 342 355 20 29 353 359 4 1 351 346 335 320 63 61 56 38 336 336 330 353 350 352 21 24 15 352 360 9 4 56 63 40 15 16 358 44 35 298 311 27 120 137 273 304 311 310 153 184 143 26 17 7 343 60 347 333 290 219 200 63 41 19 4 1 348 37 44 56 69 86 91 94 95 95
349 352 348 341 350 356 351 348 341 333 335 338 340 353 21 30 52 63 324 293 30 13 1 346 308 16 288 56 45 100 345 348 333 355 0 348 75 221 36 25 22 23 14 65 76 47 322 319 317 68 1 301 337 351 55 243 253 240 213 294 344 16 171 11 8 11 8 60 335 340 354 29 31 63 31 17 8 355 2 45 48 59 74 88 93 93 95 90
349 349 340 346 354 349 345 347 336 342 360 7 27 46 48 53 61 50 29 358 6 4 342 336 307 24 75 87 139 84 283 337 315 10 7 345 341 173 192 60 48 44 46 80 74 13 299 272 76 112 105 16 30 25 223 193 228 358 22 264 20 341 12 355 25 6 4 50 322 350 329 360 360 73 35 19 10 11 15 50 54 67 80 87 93 101 89 84
343 341 336 342 343 343 345 344 355 10 22 39 56 68 68 61 55 72 20 188 297 309 301 308 311 283 64 97 229 143 263 247 9 9 13 360 358 67 21 33 58 50 53 64 109 128 299 262 280 37 21 46 211 229 210 136 41 15 12 356 2 351 339 338 82 30 1 359 356 336 300 348 347 39 33 25 24 10 28 54 57 68 85 92 100 97 92 92
341 335 335 338 339 346 351 1 5 2 13 40 51 63 85 65 64 62 43 346 275 281 247 279 344 343 82 75 54 159 308 13 3 0 15 5 354 354 325 334 107 209 227 91 220 209 9 56 66 9 10 55 9 358 326 18 18 19 15 323 347 341 334 320 105 43 5 345 348 344 318 332 356 45 37 31 21 22 39 58 66 80 87 94 95 95 97 94
342 336 333 334 339 348 354 0 360 348 341 338 355 58 101 152 136 176 158 167 300 285 13 42 321 286 51 46 248 345 357 355 350 358 356 15 341 329 322 170 249 173 182 175 182 216 106 229 210 221 47 35 10 10 19 23 344 346 355 331 325 345 331 331 351 113 352 355 333 341 315 330 349 41 36 31 17 33 44 54 69 77 79 91 97 100 96 92
345 335 326 328 336 345 349 350 344 336 330 334 323 306 59 36 192 200 239 220 344 305 69 63 24 61 122 45 8 339 327 324 348 313 357 5 269 334 345 24 69 185 210 196 82 1 353 64 256 49 32 30 27 26 30 359 343 325 336 333 327 330 332 334 342 3 343 338 323 327 316 316 31 41 38 26 20 39 51 60 73 77 85 88 92 84 83 84
338 330 317 322 331 347 347 343 337 326 346 267 212 258 269 275 273 58 31 348 107 170 157 1 1 32 32 350 338 331 325 333 292 351 0 4 322 293 277 267 301 211 190 115 17 349 337 80 53 41 27 16 21 23 21 319 312 309 319 307 305 318 332 336 344 55 358 333 328 336 332 326 53 43 37 29 26 45 65 74 77 82 86 88 83 81 76 75
336 322 327 330 341 348 342 335 342 326 236 196 206 222 208 200 136 53 27 44 55 49 63 352 356 128 218 14 349 328 288 296 335 22 4 353 313 297 309 332 146 55 7 56 41 48 297 54 40 36 19 3 9 354 341 318 301 293 297 300 306 304 310 336 334 104 0 323 318 331 331 356 68 53 46 31 40 54 64 68 74 81 81 80 81 82 75 66
338 334 331 342 355 347 332 337 2 354 243 271 246 265 308 56 330 93 64 65 63 23 46 49 32 40 33 315 346 351 14 236 2 18 13 324 241 263 11 342 71 76 44 283 3 225 298 62 47 25 9 344 326 323 312 313 297 280 294 318 327 336 328 324 318 63 256 335 309 336 332 74 74 68 53 44 51 51 55 69 80 85 88 90 89 84 68 5
336 335 338 357 357 344 325 340 359 235 250 259 285 319 61 38 356 11 282 95 70 10 42 89 236 69 151 328 5 344 242 326 13 12 6 356 17 350 345 34 51 58 31 195 217 120 49 55 37 11 341 310 271 279 295 291 301 304 336 338 331 344 321 298 265 294 317 320 291 327 319 99 87 77 66 58 59 63 59 73 85 95 95 91 74 46 5 2
339 337 354 354 354 331 331 301 322 296 257 118 96 102 67 41 313 150 285 115 88 354 35 39 43 26 27 82 37 296 359 34 346 13 5 349 18 48 329 58 57 55 40 27 48 41 66 51 24 338 312 304 314 284 0 334 249 330 345 352 343 325 332 325 300 325 313 297 287 321 307 114 107 94 82 69 69 77 77 81 89 91 87 72 33 18 357 341
340 350 350 354 344 337 304 272 242 292 47 56 66 59 45 323 310 288 269 33 101 63 53 30 31 27 37 4 356 340 49 32 12 355 2 359 5 304 298 2 65 60 54 56 69 72 73 38 349 314 284 300 348 19 9 352 351 8 29 347 323 322 316 305 311 319 303 62 344 287 298 143 173 132 102 88 86 87 97 106 106 99 88 28 21 0 343 340
353 353 354 351 344 324 268 272 29 63 265 85 67 80 350 321 307 16 289 158 189 99 189 173 261 68 5 217 311 284 59 112 48 7 351 2 349 288 66 200 289 55 53 341 147 91 74 40 347 290 290 313 355 11 16 347 346 342 123 341 311 304 308 311 308 320 318 326 119 359 317 346 135 117 116 119 97 103 121 121 110 97 67 21 354 347 342 337
1 357 355 353 345 359 239 249 101 220 287 65 54 91 309 297 338 287 280 256 123 11 189 24 202 46 237 7 355 6 289 43 332 1 338 14 255 334 249 51 3 46 28 38 61 69 57 151 265 334 319 9 16 32 40 354 330 312 9 329 309 303 299 302 312 324 325 330 10 61 335 317 136 146 132 124 131 134 142 123 105 61 23 356 347 346 343 340
5 359 354 358 358 301 247 92 71 117 178 135 89 355 296 275 343 265 263 220 219 358 11 47 238 59 289 352 336 202 251 27 339 5 13 23 0 172 355 55 175 88 99 35 222 88 321 43 328 273 315 18 9 2 14 0 314 328 343 312 307 302 308 312 313 289 279 311 299 241 216 316 314 137 146 151 148 154 147 123 83 6 350 348 344 344 342 329
7 359 352 358 8 343 341 120 163 189 18 56 15 77 275 290 244 260 266 262 68 275 348 25 23 318 336 326 23 58 58 302 274 26 13 357 295 241 78 61 69 25 83 213 356 73 21 23 358 4 2 24 7 338 328 338 290 303 312 306 300 298 300 300 287 283 308 310 272 119 10 312 299 115 173 172 166 170 152 166 8 343 350 339 344 338 327 329
7 5 349 348 337 341 11 37 31 100 50 25 344 269 223 246 250 281 271 276 78 334 181 96 168 172 4 285 47 50 20 10 26 339 332 211 43 295 69 69 131 56 32 303 71 121 89 10 355 311 8 16 338 325 352 255 286 311 302 290 275 271 274 270 270 270 310 317 323 20 3 325 299 323 192 197 201 159 204 310 309 332 339 337 332 331 328 326
6 12 8 332 305 233 61 82 51 38 344 354 265 254 245 238 227 219 214 248 31 82 357 324 326 317 309 283 81 24 31 15 135 314 356 24 11 87 90 354 227 209 126 58 80 81 119 112 294 352 45 353 304 322 257 242 255 281 287 294 295 239 229 209 241 280 255 265 357 17 351 343 307 319 252 270 302 261 316 315 350 356 337 335 339 336 335 332
18 19 11 306 357 34 300 114 77 62 7 275 257 252 250 214 274 283 239 64 301 57 223 47 17 281 15 32 54 4 69 19 359 353 31 16 31 23 4 195 236 252 240 159 118 143 157 175 190 65 305 314 310 295 207 209 254 283 331 330 313 151 192 241 219 210 320 324 16 358 327 332 288 307 145 123 139 174 250 307 316 323 324 335 336 335 335 333
29 35 32 53 284 291 331 105 64 36 284 287 264 239 247 242 177 276 76 30 213 22 12 10 113 355 345 188 58 1 357 337 31 6 10 22 30 31 21 37 349 357 58 19 8 137 159 110 57 127 235 344 341 322 133 208 285 352 340 348 1 349 340 329 359 345 338 306 324 335 337 314 267 313 122 164 175 162 171 294 325 318 321 331 327 329 332 336
2 46 48 42 329 62 61 43 325 288 285 255 247 236 245 268 234 92 149 333 66 337 120 232 349 331 331 257 44 358 339 13 332 22 287 360 53 76 60 46 358 345 328 18 309 340 106 50 124 124 90 15 339 356 355 353 355 6 8 0 10 3 7 336 338 314 308 287 325 322 320 264 286 308 108 159 172 178 174 355 300 310 330 328 326 332 333 334
19 330 63 4 60 67 75 45 326 275 259 211 249 197 270 269 99 358 44 12 31 135 305 299 320 250 332 32 29 345 203 137 334 356 350 16 37 53 63 52 24 351 277 319 1 351 327 153 114 322 8 2 41 25 353 306 344 28 18 15 20 35 4 324 336 331 307 296 310 307 284 317 311 28 175 113 143 180 178 257 304 345 338 328 335 333 334 336
315 50 119 152 150 80 77 97 246 244 269 241 222 250 243 258 113 168 153 123 124 164 201 118 249 239 140 137 128 103 336 89 27 342 24 18 39 46 5 6 10 359 277 269 76 259 309 276 71 17 81 7 64 81 244 305 229 86 31 15 13 21 318 260 301 293 295 305 313 322 293 297 315 80 113 117 149 233 231 260 339 5 332 329 334 338 332 334
266 119 251 53 10 41 47 52 301 236 269 237 235 232 262 30 125 355 86 8 108 226 125 208 259 249 302 158 136 336 144 306 44 291 88 56 38 39 16 16 9 4 0 7 2 339 307 182 146 100 52 55 69 161 39 299 359 339 336 13 347 337 222 271 273 252 272 278 271 312 303 307 25 140 139 168 230 227 254 328 6 336 328 333 338 340 334 333
268 216 92 16 32 2 359 358 275 257 247 259 257 232 42 103 1 2 41 335 55 337 196 234 68 329 326 327 66 49 55 273 236 276 86 209 130 46 17 70 12 357 33 329 117 137 316 301 152 171 174 84 103 90 62 33 255 300 1 1 305 161 276 281 317 306 298 294 290 324 314 311 331 331 158 197 300 324 336 350 346 325 325 334 333 331 336 329
257 57 108 59 350 331 326 280 266 232 250 218 57 68 240 219 126 10 43 232 202 214 249 281 85 330 104 296 72 352 0 306 29 278 64 310 63 342 14 4 95 21 327 4 305 94 292 292 145 185 100 139 206 176 106 33 11 73 52 331 336 9 315 316 317 337 334 326 315 304 314 295 298 304 345 331 335 340 342 337 323 330 335 332 331 334 333 329
233 243 227 41 345 328 334 264 261 251 219 178 135 171 84 42 38 34 15 338 295 286 277 51 347 113 332 284 1 165 348 27 335 29 290 59 286 50 37 328 102 83 336 305 262 12 221 306 238 165 275 152 183 218 343 92 101 107 157 81 59 266 275 312 347 277 282 296 328 304 327 306 328 5 331 325 347 346 330 330 323 334 335 330 330 333 332 330
253 232 131 51 337 303 5 283 236 222 247 240 140 56 70 111 110 120 160 314 122 287 80 103 267 98 216 26 357 345 75 339 332 22 302 46 0 58 58 142 332 5 348 247 321 318 315 52 297 76 165 140 224 227 3 346 337 180 324 14 37 310 209 207 205 216 275 289 301 308 310 293 344 359 325 327 351 119 316 319 330 335 334 330 330 327 328 331
244 279 100 8 348 312 273 67 49 46 73 63 48 94 41 111 153 130 123 264 279 219 329 19 161 228 67 185 190 193 311 306 288 317 10 138 333 160 78 9 20 318 343 237 224 6 287 236 279 304 308 291 58 41 43 34 61 95 355 6 350 348 358 326 322 122 309 316 294 314 296 283 309 349 321 311 335 331 343 337 324 326 326 328 326 326 332 331
256 247 75 5 0 315 261 69 47 336 67 126 95 2 126 305 140 106 180 148 271 75 207 64 48 49 126 244 18 151 256 262 171 299 130 318 97 359 93 338 347 355 299 355 16 49 335 307 278 291 303 323 79 63 63 87 95 60 342 280 110 149 321 314 317 318 297 252 277 256 278 278 326 83 258 325 331 331 330 331 332 332 329 325 327 330 332 330
283 2 113 343 11 293 164 78 61 55 65 71 188 81 57 119 79 99 225 190 214 302 196 193 53 163 55 346 141 255 244 258 246 328 68 180 82 36 92 8 331 268 258 167 192 140 204 248 283 269 235 94 102 95 117 95 91 145 139 186 188 265 275 273 289 317 292 294 290 307 265 271 130 207 310 330 334 334 329 332 329 326 331 325 328 329 331 330
24 16 101 122 192 312 272 217 143 102 105 120 89 95 359 19 145 159 238 149 280 174 263 126 144 9 83 11 199 200 124 250 152 245 188 172 149 58 90 295 253 225 276 38 310 58 270 150 267 295 314 198 170 147 191 332 320 245 201 162 157 140 185 236 234 86 260 259 279 302 278 275 300 320 317 322 332 325 338 337 333 324 327 325 327 329 330 329
127 183 297 62 54 316 259 12 133 137 149 138 141 143 149 131 26 354 328 141 291 322 214 120 36 125 107 125 100 135 155 321 272 82 22 27 81 152 159 246 295 283 43 35 13 339 254 309 306 346 347 341 343 334 340 333 299 313 109 148 160 164 167 201 274 251 276 248 271 277 274 276 293 303 311 323 324 332 335 329 330 333 328 325 327 329 332 328
220 250 130 117 30 79 74 273 42 137 138 147 122 152 215 123 158 128 281 95 331 124 0 100 90 262 118 193 184 203 197 147 253 1 207 190 136 156 146 191 230 328 61 8 347 296 276 281 270 279 289 288 291 294 299 313 302 284 254 186 178 183 189 197 264 252 269 300 286 262 263 288 301 307 316 320 327 330 331 332 331 330 329 327 326 327 327 326
334 277 350 214 146 63 81 59 106 130 149 191 166 158 169 154 126 145 271 261 158 281 115 352 154 184 161 213 233 224 197 172 162 17 227 258 91 95 153 178 191 223 164 92 182 250 242 265 216 242 250 259 274 279 286 291 280 280 281 282 154 169 164 189 219 249 284 304 282 250 282 298 293 301 312 321 330 332 329 327 329 327 322 324 326 325 324 323
252 74 71 40 284 111 181 104 50 82 66 34 84 118 154 148 176 165 156 357 97 249 234 148 210 238 194 202 184 236 176 223 178 224 84 330 192 158 178 190 217 170 186 157 161 266 327 287 104 86 251 261 268 268 273 270 261 264 270 270 251 185 174 194 224 235 262 249 261 285 296 293 292 297 307 318 331 328 323 325 322 318 320 324 324 323 326 328
9 83 64 305 265 51 358 20 46 116 98 83 111 185 166 180 179 138 157 134 220 199 238 244 208 202 205 189 216 269 183 249 221 138 207 143 213 159 195 164 174 154 205 160 175 104 283 256 73 281 293 286 273 263 256 256 264 267 263 264 266 250 211 211 237 242 237 244 255 276 286 285 285 295 303 313 325 319 322 321 316 319 321 324 324 324 330 329
185 206 133 53 85 85 55 109 122 183 141 207 180 194 191 191 177 132 227 189 177 181 147 251 220 142 173 189 215 236 254 299 7 291 163 129 183 232 256 271 116 181 208 199 182 156 261 334 66 310 290 288 285 232 236 249 262 270 270 268 264 255 255 236 242 252 253 261 263 270 282 284 281 283 304 319 315 312 315 318 317 319 324 324 322 327 333 327
23 345 104 154 122 74 115 148 189 202 188 178 236 136 200 205 193 166 145 6 330 162 181 204 127 117 102 215 229 248 341 342 0 348 182 202 284 129 223 110 125 149 173 152 206 167 221 274 126 254 304 305 163 201 256 277 269 270 277 268 254 245 241 236 232 225 228 247 266 281 281 277 294 314 313 306 310 313 316 318 318 320 325 324 327 333 331 324
279 129 238 299 116 301 223 73 267 212 215 72 38 142 208 183 124 154 131 160 149 355 3 312 148 229 167 204 239 236 31 54 73 60 36 39 41 105 49 27 246 185 176 178 45 238 250 309 307 333 312 272 87 225 310 315 299 257 239 229 226 225 228 235 235 242 242 260 281 276 262 274 303 311 308 308 312 314 317 319 319 321 322 331 331 331 325 321